User: anonymous   Login
Location: Newark
(41.6500°N, 71.4833°W)
Time: 08:28:54
(UTC+00:00)
Language:

A-11 Canister half - Orbit

View from above orbital plane
View from above orbital plane
View from above satellite
View from above satellite

Ground track
Ground track

The orbit data is extracted from the following two-line orbital elements,

1    51U 60009C   20017.55814859 -.00000178 +00000-0 -89457-3 0  9990
2    51 047.2131 097.3411 0104648 072.8129 288.4085 12.18271887645570
Epoch (UTC): 17 January 2020 13:23:44
Eccentricity: 0.0104648
inclination: 47.2131°
perigee height: 1516 km
apogee height: 1683 km
right ascension of ascending node: 97.3411°
argument of perigee: 72.8129°
revolutions per day: 12.18271887
mean anomaly at epoch: 288.4085°
orbit number at epoch: 64557

The dashed part of the orbit path shows where the satellite is in the earth's shadow,  

DLR